Weather History for KBCE - September, 2013

Change the Weather History Date:

Monday, September 9, 2013

  Actual Average Record
Temperature  
Mean Temperature 58 °F -  
Max Temperature 64 °F 72 °F 85 °F (1977)
Min Temperature 51 °F 40 °F 24 °F (1962)
Degree Days  
Heating Degree Days 8    
Growing Degree Days 8 (Base 50)    
Moisture  
Dew Point 53 °F    
Average Humidity 89    
Maximum Humidity 100    
Minimum Humidity 63    
Precipitation  
Precipitation 0.04 in - - ()
Sea Level Pressure  
Sea Level Pressure 30.03 in    
Wind  
Wind Speed 3 mph (SE)    
Max Wind Speed 13 mph    
Max Gust Speed -    
Visibility 9 miles    
Events Fog , Rain , Thunderstorm    
Averages and records for this station are not official NWS values.
T = Trace of Precipitation, MM = Missing Value Source: NWS Daily Summary

Daily Weather History Graph

Daily Weather History Graph

Search for Another Location

Airport or City:

Trip Planner

Search our weather history database for the weather conditions in past years. The results will help you decide how hot, cold, wet, or windy it might be!

Date:

Astronomy

Sep. 09, 2013 Rise Set
Actual Time 7:05 AM MDT 7:45 PM MDT
Civil Twilight 6:39 AM MDT 8:11 PM MDT
Nautical Twilight 6:07 AM MDT 8:42 PM MDT
Astronomical Twilight 5:35 AM MDT 9:14 PM MDT
Moon 11:25 AM MDT (9/9) 10:10 PM MDT (9/9)
Length of Visible Light 13h 32m
Length of Day
12h 39m
Waxing Crescent, 19% of the Moon is Illuminated
Sep 9
Waxing Crescent
Sep 12
First Quarter
Sep 19
Full
Sep 26
Last Quarter
Oct 4
New

Hourly Weather History & Observations

Time (MDT) Temp. Dew Point Humidity Pressure Visibility Wind Dir Wind Speed Gust Speed Precip Events Conditions
12:53 AM 54.0 °F 53.1 °F 97% 29.90 in 10.0 mi Calm Calm - N/A   Overcast
1:14 AM 53.6 °F 53.6 °F 100% 30.20 in 10.0 mi Calm Calm - N/A   Overcast
1:53 AM 54.0 °F 53.1 °F 97% 29.91 in 10.0 mi Calm Calm - N/A   Overcast
2:39 AM 53.6 °F 51.8 °F 94% 30.20 in 10.0 mi Calm Calm - 0.00 in Rain Light Rain
2:53 AM 53.1 °F 52.0 °F 96% 29.90 in 10.0 mi Calm Calm - 0.00 in   Overcast
3:53 AM 53.1 °F 52.0 °F 96% 29.88 in 10.0 mi Calm Calm - 0.01 in   Overcast
4:40 AM 53.6 °F 51.8 °F 94% 30.18 in 10.0 mi Calm Calm - N/A   Overcast
4:53 AM 52.0 °F 52.0 °F 100% 29.88 in 10.0 mi Calm Calm - N/A   Overcast
5:12 AM 51.8 °F 51.8 °F 100% 30.18 in 10.0 mi Calm Calm - 0.00 in Rain Light Rain
5:29 AM 51.8 °F 51.8 °F 100% 30.17 in 10.0 mi Calm Calm - 0.00 in   Mostly Cloudy
5:36 AM 51.8 °F 51.8 °F 100% 30.17 in 10.0 mi Calm Calm - 0.00 in   Mostly Cloudy
5:46 AM 51.8 °F 51.8 °F 100% 30.17 in 1.8 mi Calm Calm - 0.00 in   Overcast
5:53 AM 52.0 °F 52.0 °F 100% 29.87 in 1.5 mi Calm Calm - 0.00 in   Overcast
6:03 AM 51.8 °F 51.8 °F 100% 30.17 in 0.5 mi Calm Calm - N/A Fog Fog
6:16 AM 51.8 °F 51.8 °F 100% 30.17 in 2.0 mi West 3.5 mph - N/A   Overcast
6:24 AM 51.8 °F 51.8 °F 100% 30.17 in 10.0 mi West 3.5 mph - N/A   Overcast
6:41 AM 51.8 °F 51.8 °F 100% 30.17 in 10.0 mi West 4.6 mph - N/A   Overcast
6:53 AM 52.0 °F 51.1 °F 97% 29.89 in 10.0 mi West 3.5 mph - N/A   Overcast
7:53 AM 52.0 °F 51.1 °F 97% 29.90 in 10.0 mi NW 3.5 mph - N/A   Overcast
8:04 AM 53.6 °F 53.6 °F 100% 30.18 in 10.0 mi WNW 3.5 mph - N/A   Overcast
8:12 AM 53.6 °F 53.6 °F 100% 30.18 in 10.0 mi Calm Calm - N/A   Overcast
8:53 AM 54.0 °F 53.1 °F 97% 29.90 in 10.0 mi NNE 3.5 mph - N/A   Mostly Cloudy
9:22 AM 55.4 °F 53.6 °F 94% 30.18 in 10.0 mi NNE 6.9 mph - N/A   Mostly Cloudy
9:38 AM 55.4 °F 53.6 °F 94% 30.19 in 10.0 mi ENE 5.8 mph - N/A   Scattered Clouds
9:53 AM 57.0 °F 53.1 °F 87% 29.88 in 10.0 mi ENE 5.8 mph - N/A   Mostly Cloudy
10:53 AM 62.1 °F 52.0 °F 70% 29.86 in 10.0 mi NE 5.8 mph - N/A   Clear
11:53 AM 64.9 °F 52.0 °F 63% 29.84 in 10.0 mi ENE 4.6 mph - N/A   Clear
12:38 PM 62.6 °F 51.8 °F 68% 30.17 in 10.0 mi SE 10.4 mph - N/A   Mostly Cloudy
12:45 PM 62.6 °F 53.6 °F 72% 30.16 in 10.0 mi South 6.9 mph - N/A   Scattered Clouds
12:53 PM 64.0 °F 53.1 °F 67% 29.83 in 10.0 mi South 6.9 mph - N/A   Scattered Clouds
1:53 PM 63.0 °F 53.1 °F 70% 29.83 in 10.0 mi SSE 10.4 mph - N/A   Clear
2:23 PM 64.4 °F 53.6 °F 68% 30.15 in 10.0 mi SE 10.4 mph - N/A Thunderstorm Thunderstorm
2:53 PM 63.0 °F 52.0 °F 67% 29.83 in 10.0 mi South 6.9 mph - N/A   Overcast
3:20 PM 62.6 °F 53.6 °F 72% 30.13 in 10.0 mi SSE 12.7 mph - N/A Thunderstorm Overcast
3:35 PM 60.8 °F 55.4 °F 82% 30.12 in 10.0 mi SSE 11.5 mph - N/A   Overcast
3:53 PM 60.1 °F 54.0 °F 80% 29.82 in 10.0 mi SSE 11.5 mph - N/A   Overcast
4:53 PM 57.9 °F 55.9 °F 93% 29.82 in 10.0 mi SE 11.5 mph - 0.01 in Rain Light Rain
5:01 PM 57.2 °F 55.4 °F 94% 30.12 in 10.0 mi SE 11.5 mph - 0.00 in   Overcast
5:30 PM 57.2 °F 53.6 °F 88% 30.12 in 10.0 mi SSE 6.9 mph - 0.00 in Thunderstorm Mostly Cloudy
5:53 PM 57.9 °F 54.0 °F 87% 29.83 in 10.0 mi Calm Calm - 0.00 in Thunderstorm Mostly Cloudy
6:12 PM 57.2 °F 53.6 °F 88% 30.13 in 10.0 mi SE 4.6 mph - N/A   Scattered Clouds
6:19 PM 57.2 °F 53.6 °F 88% 30.13 in 10.0 mi SE 3.5 mph - N/A Thunderstorm Mostly Cloudy
6:38 PM 57.2 °F 53.6 °F 88% 30.14 in 10.0 mi SE 3.5 mph - N/A   Overcast
6:50 PM 57.2 °F 53.6 °F 88% 30.14 in 10.0 mi Calm Calm - N/A   Overcast
6:53 PM 57.9 °F 54.0 °F 87% 29.84 in 10.0 mi Calm Calm - N/A   Overcast
7:08 PM 57.2 °F 53.6 °F 88% 30.14 in 10.0 mi SE 3.5 mph - 0.00 in Rain Light Rain
7:19 PM 57.2 °F 55.4 °F 94% 30.13 in 10.0 mi SSE 6.9 mph - 0.00 in Thunderstorm Thunderstorm
7:32 PM 55.4 °F 51.8 °F 88% 30.14 in 7.0 mi SE 10.4 mph - 0.01 in Rain , Thunderstorm Thunderstorms and Rain
7:49 PM 53.6 °F 51.8 °F 94% 30.14 in 10.0 mi SSE 5.8 mph - 0.01 in Rain Light Rain
7:53 PM 54.0 °F 50.0 °F 86% 29.86 in 10.0 mi SSE 6.9 mph - 0.01 in Rain Light Rain
8:09 PM 53.6 °F 51.8 °F 94% 30.14 in 10.0 mi SSE 3.5 mph - 0.00 in Rain , Thunderstorm Light Rain
8:24 PM 53.6 °F 51.8 °F 94% 30.14 in 10.0 mi WNW 4.6 mph - 0.01 in Rain Light Rain
8:53 PM 54.0 °F 51.1 °F 90% 29.86 in 10.0 mi WSW 4.6 mph - 0.01 in   Overcast
9:53 PM 54.0 °F 52.0 °F 93% 29.84 in 10.0 mi Calm Calm - 0.00 in Rain Light Rain
10:53 PM 54.0 °F 48.0 °F 80% 29.82 in 10.0 mi NNE 4.6 mph - 0.00 in Rain Light Rain
11:53 PM 53.1 °F 48.9 °F 86% 29.82 in 10.0 mi Calm Calm - 0.00 in Rain Light Rain